Shreveport, LA

10:05 PM CST on February 22, 2017 (GMT -0600)
Shreveport Regional

Weather History for KSHV - March, 2014

Change the Weather History Date:

Thursday, March 27, 2014

  Actual Average Record
Temperature  
Mean Temperature 61 °F 60 °F  
Max Temperature 68 °F 73 °F 89 °F (1935)
Min Temperature 53 °F 49 °F 27 °F (1955)
Degree Days  
Heating Degree Days 4 6  
Month to date heating degree days 311 229  
Since 1 July heating degree days 2422 2111  
Cooling Degree Days 0 1  
Month to date cooling degree days 5 25  
Year to date cooling degree days 11 35  
Growing Degree Days 10 (Base 50)    
Moisture  
Dew Point 55 °F    
Average Humidity 77    
Maximum Humidity 100    
Minimum Humidity 54    
Precipitation  
Precipitation 0.23 in 0.13 in 1.53 in (1938)
Month to date precipitation 2.11 3.57  
Year to date precipitation 5.55 12.52  
Snow  
Snow 0.00 in - - ()
Month to date snowfall T  
Since 1 July snowfall 1.0  
Snow Depth 0.00 in    
Sea Level Pressure  
Sea Level Pressure 29.88 in    
Wind  
Wind Speed 11 mph (SSE)    
Max Wind Speed 24 mph    
Max Gust Speed 30 mph    
Visibility 8 miles    
Events Rain , Thunderstorm    
T = Trace of Precipitation, MM = Missing Value Source: NWS Daily Summary

Daily Weather History Graph

Daily Weather History Graph

Search for Another Location

Airport or City:

Trip Planner

Search our weather history database for the weather conditions in past years. The results will help you decide how hot, cold, wet, or windy it might be!

Date:

Astronomy

Mar. 27, 2014 Rise Set
Actual Time 7:09 AM CDT 7:31 PM CDT
Civil Twilight 6:45 AM CDT 7:56 PM CDT
Nautical Twilight 6:16 AM CDT 8:25 PM CDT
Astronomical Twilight 5:47 AM CDT 8:54 PM CDT
Moon 4:50 AM CDT (3/27) 4:29 PM CDT (3/27)
Length of Visible Light 13h 11m
Length of Day
12h 21m
Waning Crescent, 13% of the Moon is Illuminated
Mar 27
Waning Crescent
Mar 30
New
Apr 7
First Quarter
Apr 15
Full
Apr 22
Last Quarter

Hourly Weather History & Observations

Time (CDT) Temp. Dew Point Humidity Pressure Visibility Wind Dir Wind Speed Gust Speed Precip Events Conditions
12:18 AM 53.6 °F 35.6 °F 51% 30.06 in 10.0 mi SSE 12.7 mph 21.9 mph N/A   Overcast
12:56 AM 53.1 °F 37.0 °F 55% 30.04 in 10.0 mi SSE 13.8 mph - N/A   Overcast
1:56 AM 53.1 °F 39.0 °F 59% 30.02 in 10.0 mi SSE 9.2 mph - N/A   Overcast
2:56 AM 53.1 °F 42.1 °F 66% 30.00 in 10.0 mi South 8.1 mph - N/A   Overcast
3:56 AM 53.1 °F 44.1 °F 71% 29.97 in 10.0 mi SSE 11.5 mph - N/A   Overcast
4:56 AM 54.0 °F 45.0 °F 72% 29.95 in 10.0 mi SSE 10.4 mph 18.4 mph N/A   Overcast
5:33 AM 53.6 °F 44.6 °F 72% 29.93 in 10.0 mi SSE 9.2 mph - N/A   Overcast
5:56 AM 53.1 °F 46.0 °F 77% 29.94 in 10.0 mi SSE 9.2 mph - N/A   Overcast
6:56 AM 54.0 °F 48.0 °F 80% 29.94 in 10.0 mi SE 10.4 mph - N/A   Overcast
7:56 AM 54.0 °F 48.0 °F 80% 29.94 in 10.0 mi SE 8.1 mph - N/A   Overcast
8:56 AM 55.9 °F 50.0 °F 80% 29.93 in 10.0 mi SE 10.4 mph - N/A   Overcast
9:56 AM 57.9 °F 51.1 °F 78% 29.93 in 10.0 mi SE 11.5 mph - N/A   Overcast
10:47 AM 60.8 °F 53.6 °F 77% 29.92 in 10.0 mi SSE 8.1 mph - N/A   Overcast
10:56 AM 62.1 °F 54.0 °F 75% 29.92 in 10.0 mi SE 9.2 mph - N/A   Overcast
11:56 AM 64.9 °F 57.0 °F 75% 29.91 in 10.0 mi SSE 11.5 mph - N/A   Overcast
12:56 PM 66.0 °F 57.9 °F 75% 29.90 in 10.0 mi South 16.1 mph 25.3 mph N/A   Overcast
1:24 PM 66.2 °F 59.0 °F 78% 29.90 in 10.0 mi South 17.3 mph 29.9 mph 0.00 in Rain , Thunderstorm Light Thunderstorms and Rain
1:56 PM 64.9 °F 60.1 °F 84% 29.87 in 7.0 mi South 16.1 mph 23.0 mph 0.02 in Thunderstorm Thunderstorm
2:19 PM 66.2 °F 60.8 °F 83% 29.85 in 7.0 mi South 24.2 mph 28.8 mph 0.00 in Rain , Thunderstorm Light Thunderstorms and Rain
2:53 PM 66.2 °F 60.8 °F 83% 29.84 in 9.0 mi South 16.1 mph 24.2 mph 0.00 in   Overcast
2:56 PM 66.0 °F 61.0 °F 84% 29.83 in 9.0 mi South 18.4 mph 26.5 mph 0.00 in   Overcast
3:25 PM 64.4 °F 60.8 °F 88% 29.82 in 8.0 mi South 16.1 mph 21.9 mph N/A Thunderstorm Thunderstorm
3:56 PM 64.9 °F 61.0 °F 87% 29.81 in 7.0 mi South 15.0 mph 24.2 mph 0.00 in Rain , Thunderstorm Light Thunderstorms and Rain
4:04 PM 64.4 °F 60.8 °F 88% 29.81 in 2.0 mi South 12.7 mph 21.9 mph 0.01 in Rain , Thunderstorm Light Thunderstorms and Rain
4:17 PM 64.4 °F 62.6 °F 94% 29.81 in 6.0 mi SSE 13.8 mph - 0.12 in Rain , Thunderstorm Light Thunderstorms and Rain
4:25 PM 64.4 °F 62.6 °F 94% 29.81 in 6.0 mi SSW 10.4 mph 21.9 mph 0.12 in Rain , Thunderstorm Light Thunderstorms and Rain
4:32 PM 64.4 °F 62.6 °F 94% 29.81 in 6.0 mi South 11.5 mph - 0.12 in Rain Light Rain
4:56 PM 64.9 °F 63.0 °F 93% 29.80 in 6.0 mi South 9.2 mph - 0.12 in   Overcast
5:21 PM 64.4 °F 62.6 °F 94% 29.80 in 6.0 mi South 6.9 mph - 0.00 in   Overcast
5:56 PM 64.9 °F 63.0 °F 93% 29.79 in 6.0 mi SSE 6.9 mph - 0.02 in   Overcast
6:56 PM 64.9 °F 63.0 °F 93% 29.79 in 10.0 mi SSE 5.8 mph - 0.03 in Rain Light Rain
7:56 PM 64.0 °F 63.0 °F 96% 29.80 in 6.0 mi SSE 4.6 mph - 0.02 in Rain Light Rain
8:56 PM 64.0 °F 63.0 °F 96% 29.79 in 7.0 mi South 13.8 mph - 0.01 in Rain Light Rain
9:10 PM 64.4 °F 62.6 °F 94% 29.79 in 5.0 mi SSE 16.1 mph - 0.00 in Rain Light Rain
9:18 PM 64.4 °F 62.6 °F 94% 29.79 in 5.0 mi SSE 11.5 mph - 0.00 in   Overcast
9:56 PM 64.0 °F 63.0 °F 96% 29.81 in 9.0 mi SSE 13.8 mph - 0.01 in   Overcast
10:56 PM 64.9 °F 63.0 °F 93% 29.82 in 10.0 mi South 5.8 mph - N/A   Overcast
11:56 PM 64.9 °F 64.0 °F 97% 29.81 in 10.0 mi South 10.4 mph - N/A   Overcast